Houlton, ME

8:12 AM EDT on October 23, 2017 (GMT -0400)
Houlton International

Weather History for KHUL - February, 2013

Change the Weather History Date:

Thursday, February 28, 2013

  Actual Average Record
Temperature  
Mean Temperature 30 °F 19 °F  
Max Temperature 32 °F 31 °F 49 °F (1954)
Min Temperature 27 °F 8 °F -26 °F (1982)
Degree Days  
Heating Degree Days 35 46  
Month to date heating degree days 1308 1397  
Since 1 July heating degree days 6105 6573  
Cooling Degree Days 0 0  
Month to date cooling degree days 0 0  
Year to date cooling degree days 0 0  
Moisture  
Dew Point 23 °F    
Average Humidity 71    
Maximum Humidity 92    
Minimum Humidity 49    
Precipitation  
Precipitation 0.03 in 0.08 in 0.45 in (1952)
Month to date precipitation 0.94 2.00  
Year to date precipitation 2.40 4.86  
Sea Level Pressure  
Sea Level Pressure 29.71 in    
Wind  
Wind Speed 10 mph (ENE)    
Max Wind Speed 20 mph    
Max Gust Speed 29 mph    
Visibility 3 miles    
Events Fog , Rain , Snow    
T = Trace of Precipitation, MM = Missing Value Source: NWS Daily Summary

Daily Weather History Graph

Daily Weather History Graph

Search for Another Location

Airport or City:

Trip Planner

Search our weather history database for the weather conditions in past years. The results will help you decide how hot, cold, wet, or windy it might be!

Date:

Astronomy

Feb. 28, 2013 Rise Set
Actual Time 6:11 AM EST 5:16 PM EST
Civil Twilight 5:41 AM EST 5:46 PM EST
Nautical Twilight 5:06 AM EST 6:21 PM EST
Astronomical Twilight 4:32 AM EST 6:56 PM EST
Moon 8:54 PM EST (2/28) 7:06 AM EST (2/28)
Length of Visible Light 12h 05m
Length of Day
11h 04m
Waning Gibbous, 91% of the Moon is Illuminated
Feb 28
Waning Gibbous
Mar 4
Last Quarter
Mar 11
New
Mar 19
First Quarter
Mar 27
Full

Hourly Weather History & Observations

Time (EST) Temp. Windchill Dew Point Humidity Pressure Visibility Wind Dir Wind Speed Gust Speed Precip Events Conditions
12:53 AM 32.0 °F 24.2 °F 15.1 °F 50% 29.90 in 10.0 mi East 9.2 mph 16.1 mph N/A   Overcast
2:53 AM 30.9 °F 23.5 °F 15.1 °F 52% 29.83 in 10.0 mi East 8.1 mph 18.4 mph N/A   Overcast
3:17 AM 30.2 °F 23.4 °F 15.8 °F 55% 29.81 in 9.0 mi ENE 6.9 mph 19.6 mph N/A   Overcast
3:53 AM 30.0 °F 19.5 °F 18.0 °F 61% 29.83 in 4.0 mi East 13.8 mph 23.0 mph 0.00 in Snow Light Snow
4:04 AM 28.4 °F 19.7 °F 19.4 °F 69% 29.82 in 2.0 mi East 9.2 mph 18.4 mph 0.00 in Snow Light Snow
4:23 AM 28.4 °F 19.1 °F 21.2 °F 74% 29.82 in 3.0 mi East 10.4 mph 21.9 mph 0.00 in Snow Light Snow
4:31 AM 28.4 °F 18.5 °F 21.2 °F 74% 29.81 in 1.8 mi East 11.5 mph 26.5 mph 0.00 in Snow Light Snow
4:49 AM 26.6 °F 15.7 °F 21.2 °F 80% 29.80 in 2.0 mi East 12.7 mph 20.7 mph 0.00 in Snow Light Snow
4:50 AM 26.6 °F 15.2 °F 21.2 °F 80% 29.80 in 2.0 mi East 13.8 mph 20.7 mph N/A Snow Light Snow
4:59 AM 26.6 °F 15.7 °F 21.2 °F 80% 29.79 in 4.0 mi East 12.7 mph 23.0 mph 0.00 in Snow Light Snow
5:53 AM 28.0 °F 18.6 °F 21.9 °F 78% 29.81 in 9.0 mi East 10.4 mph 16.1 mph 0.01 in   Overcast
6:20 AM 28.4 °F 19.1 °F 21.2 °F 74% 29.79 in 7.0 mi East 10.4 mph - N/A   Overcast
6:53 AM 28.0 °F 20.0 °F 21.9 °F 78% 29.81 in 7.0 mi East 8.1 mph 16.1 mph N/A   Overcast
7:53 AM 28.9 °F 19.2 °F 19.9 °F 69% 29.79 in 9.0 mi East 11.5 mph 21.9 mph N/A   Overcast
8:53 AM 28.4 °F 18.5 °F 19.4 °F 69% 29.76 in 10.0 mi East 11.5 mph 23.0 mph N/A   Overcast
9:28 AM 30.2 °F 19.8 °F 19.4 °F 64% 29.76 in 9.0 mi East 13.8 mph 25.3 mph N/A   Overcast
9:53 AM 30.0 °F 21.1 °F 19.0 °F 64% 29.78 in 10.0 mi East 10.4 mph 20.7 mph 0.01 in   Overcast
10:08 AM 28.4 °F 17.5 °F 19.4 °F 69% 29.75 in 7.0 mi East 13.8 mph 23.0 mph N/A   Overcast
10:53 AM 28.9 °F 19.8 °F 19.0 °F 67% 29.77 in 10.0 mi East 10.4 mph 16.1 mph N/A   Overcast
11:53 AM 28.9 °F 19.8 °F 21.0 °F 72% 29.76 in 10.0 mi ENE 10.4 mph 17.3 mph N/A   Overcast
12:40 PM 28.4 °F 18.5 °F 23.0 °F 80% 29.73 in 2.5 mi ENE 11.5 mph 16.1 mph 0.00 in Rain Light Freezing Rain
12:53 PM 28.9 °F 19.8 °F 24.1 °F 82% 29.75 in 1.5 mi ENE 10.4 mph 20.7 mph 0.00 in Rain Light Freezing Rain
1:17 PM 28.4 °F 22.2 °F 24.8 °F 86% 29.72 in 2.5 mi ENE 5.8 mph - N/A Rain Light Freezing Rain
1:43 PM 28.4 °F 21.2 °F 24.8 °F 86% 29.72 in 1.2 mi ENE 6.9 mph - 0.00 in Snow Light Snow
1:50 PM 28.4 °F 22.2 °F 24.8 °F 86% 29.72 in 1.5 mi ENE 5.8 mph - 0.00 in Snow Light Snow
1:51 PM 28.0 °F 20.0 °F 24.1 °F 85% 29.74 in 1.5 mi ENE 8.1 mph - 0.00 in Snow Light Snow
1:55 PM 28.4 °F 20.4 °F 23.0 °F 80% 29.72 in 3.0 mi ENE 8.1 mph - 0.00 in Snow Light Snow
2:09 PM 28.4 °F 19.7 °F 23.0 °F 80% 29.71 in 7.0 mi ENE 9.2 mph - 0.00 in   Overcast
2:34 PM 28.4 °F 21.2 °F 23.0 °F 80% 29.71 in 1.8 mi NE 6.9 mph - 0.00 in Snow Light Snow
2:46 PM 28.4 °F 19.7 °F 24.8 °F 86% 29.70 in 1.0 mi NE 9.2 mph - 0.00 in Snow Light Snow
2:53 PM 28.0 °F 20.0 °F 24.1 °F 85% 29.73 in 1.2 mi NE 8.1 mph - 0.00 in Snow Light Snow
3:53 PM 28.4 °F 20.4 °F 24.8 °F 86% 29.68 in 0.8 mi NE 8.1 mph - N/A Snow Light Snow
4:03 PM 28.4 °F 19.7 °F 24.8 °F 86% 29.68 in 0.5 mi NE 9.2 mph - N/A Fog , Snow Light Snow
4:23 PM 28.4 °F 19.7 °F 24.8 °F 86% 29.67 in 0.8 mi NNE 9.2 mph - 0.00 in Snow Light Snow
4:48 PM 28.4 °F 21.2 °F 24.8 °F 86% 29.67 in 0.2 mi NNE 6.9 mph - 0.00 in Fog , Snow Snow
4:53 PM 28.0 °F 20.8 °F 25.0 °F 88% 29.70 in 0.2 mi NNE 6.9 mph - 0.00 in Fog , Snow Snow
5:32 PM 28.4 °F 21.2 °F 26.6 °F 93% 29.67 in 0.2 mi NNE 6.9 mph - 0.00 in Fog , Snow Heavy Snow
5:53 PM 28.9 °F 19.8 °F 26.1 °F 89% 29.68 in 0.8 mi NE 10.4 mph - 0.00 in Snow Light Snow
6:36 PM 28.4 °F 20.4 °F 24.8 °F 86% 29.66 in 1.0 mi NE 8.1 mph - 0.00 in Snow Light Snow
6:44 PM 28.4 °F 20.4 °F 24.8 °F 86% 29.66 in 0.8 mi NE 8.1 mph - 0.00 in Snow Light Snow
6:53 PM 28.9 °F 19.8 °F 25.0 °F 85% 29.68 in 1.0 mi NE 10.4 mph - 0.00 in Snow Light Snow
7:06 PM 28.4 °F 17.5 °F 24.8 °F 86% 29.66 in 1.0 mi NE 13.8 mph 18.4 mph 0.00 in Snow Light Snow
7:13 PM 28.4 °F 18.0 °F 24.8 °F 86% 29.66 in 0.5 mi ENE 12.7 mph 20.7 mph 0.00 in Fog , Snow Snow
7:44 PM 28.4 °F 19.1 °F 24.8 °F 86% 29.66 in 0.2 mi ENE 10.4 mph 17.3 mph 0.00 in Fog , Snow Heavy Snow
7:53 PM 28.4 °F 19.1 °F 24.8 °F 86% 29.65 in 0.5 mi ENE 10.4 mph - N/A Fog , Snow Snow
8:21 PM 28.4 °F 19.7 °F 24.8 °F 86% 29.65 in 0.8 mi NE 9.2 mph - 0.00 in Snow Light Snow
8:26 PM 28.4 °F 19.1 °F 24.8 °F 86% 29.64 in 1.5 mi NE 10.4 mph - 0.00 in Snow Light Snow
8:31 PM 28.4 °F 19.7 °F 24.8 °F 86% 29.64 in 1.8 mi NE 9.2 mph - 0.00 in Snow Light Snow
8:35 PM 28.4 °F 19.1 °F 24.8 °F 86% 29.64 in 1.5 mi NE 10.4 mph - 0.00 in Snow Light Snow
8:45 PM 28.4 °F 22.2 °F 26.6 °F 93% 29.64 in 1.5 mi Variable 5.8 mph - 0.00 in Snow Light Snow
8:53 PM 28.9 °F 21.9 °F 26.1 °F 89% 29.67 in 1.2 mi NE 6.9 mph - 0.00 in Snow Light Snow
9:06 PM 30.2 °F 21.3 °F 26.6 °F 86% 29.64 in 1.0 mi NE 10.4 mph - 0.01 in Snow Light Snow
9:16 PM 30.2 °F 22.6 °F 26.6 °F 86% 29.64 in 0.8 mi ENE 8.1 mph - 0.01 in Snow Light Snow
9:23 PM 30.2 °F 20.8 °F 26.6 °F 86% 29.64 in 1.0 mi ENE 11.5 mph 19.6 mph 0.01 in Snow Light Snow
9:42 PM 30.2 °F 20.8 °F 26.6 °F 86% 29.63 in 1.5 mi ENE 11.5 mph - 0.01 in Snow Light Snow
9:53 PM 30.0 °F 20.0 °F 27.0 °F 88% 29.65 in 1.5 mi ENE 12.7 mph 19.6 mph 0.01 in Snow Light Snow
10:19 PM 30.2 °F 19.3 °F 26.6 °F 86% 29.62 in 2.0 mi ENE 15.0 mph 23.0 mph 0.00 in Snow Light Snow
10:26 PM 30.2 °F 18.9 °F 26.6 °F 86% 29.62 in 2.5 mi East 16.1 mph 24.2 mph 0.00 in Snow Light Snow
10:53 PM 30.2 °F 19.3 °F 26.6 °F 86% 29.61 in 2.5 mi ENE 15.0 mph 20.7 mph N/A Snow Light Snow
11:13 PM 30.2 °F 21.3 °F 26.6 °F 86% 29.61 in 3.0 mi ENE 10.4 mph - 0.00 in Snow Light Snow
11:24 PM 30.2 °F 21.3 °F 26.6 °F 86% 29.61 in 1.8 mi ENE 10.4 mph - 0.00 in Snow Light Snow
11:34 PM 30.2 °F 20.2 °F 26.6 °F 86% 29.61 in 2.0 mi NE 12.7 mph - 0.00 in Snow Light Snow
11:53 PM 30.0 °F 21.7 °F 26.1 °F 85% 29.63 in 1.8 mi ENE 9.2 mph - 0.00 in Snow Light Snow